SCP
0 0 0 0 0 0 0 0 0 0 0 0 0 0 0 0 0 0 0 0 0 0 0 0 0 0 0 0 0 0 0 0 0 0 0 0 0 0 0 0 0 0 0
0 0 0 0 0 0 0 0 0 0 0 0 0 0 0 0 0 0 0 0 0 0 0 0 0 0 0 0 0 0 0 0 0 0 0 0 0 0 0 0 0 0 0
1 1 1 1 1 1 0 0 0 0 0 0 0 0 0 0 0 0 0 0 0 0 0 0 0 0 0 0 0 0 0 0 0 0 0 0 0 0 0 0 0 0 0
1 1 1 1 1 1 1 0 0 0 0 0 0 0 0 0 0 0 0 0 0 0 0 0 0 0 0 0 0 0 0 0 0 0 0 0 0 0 0 0 0 0 0
1 1 1 1 1 1 1 1 0 0 0 0 0 0 0 0 0 0 0 0 0 0 0 0 0 0 0 0 0 0 0 0 0 0 0 0 0 0 0 0 0 0 0
1 1 1 1 1 1 1 1 1 0 0 0 0 0 0 0 0 0 0 0 0 0 0 0 0 0 0 0 0 0 0 0 0 0 0 0 0 0 0 0 0 0 0
1 1 1 1 1 1 1 1 1 1 0 0 0 0 0 0 0 0 0 0 0 0 0 0 0 0 0 0 0 0 0 0 0 0 0 0 0 0 0 0 0 0 0
1 1 1 1 1 1 1 1 1 1 1 0 0 0 0 0 0 0 0 0 0 0 0 0 0 0 0 0 0 0 0 0 0 0 0 0 0 0 0 0 0 0 0
1 1 1 1 1 1 1 1 1 1 1 0 0 0 0 0 0 0 0 0 0 0 0 0 0 0 0 0 0 0 0 0 0 0 0 0 0 0 0 0 0 0 0
1 1 1 1 1 1 1 1 1 1 1 0 0 0 0 0 0 0 0 0 0 0 0 0 0 0 0 0 0 0 0 0 0 0 0 0 0 0 0 0 0 0 0
1 1 1 1 1 1 1 1 1 1 1 0 0 0 0 0 0 0 0 0 0 0 0 0 0 0 0 0 0 0 0 0 0 0 0 0 0 0 0 0 0 0 0
0 0 0 0 0 0 0 1 1 1 0 0 0 0 0 0 0 0 0 0 0 0 0 0 0 0 0 0 0 0 0 0 0 0 0 0 0 0 0 0 0 0 0
0 0 0 0 0 0 0 0 0 0 0 0 0 0 0 0 0 0 0 0 0 0 0 0 0 0 0 0 0 0 0 0 0 0 0 0 0 0 0 0 0 0 0
0 0 0 0 0 0 0 0 0 0 0 0 0 0 0 0 0 0 0 0 0 0 0 0 0 0 0 0 0 0 0 0 0 0 0 0 0 0 0 0 0 0 0
0 0 0 0 0 0 0 0 0 0 0 0 0 0 0 0 0 0 0 0 0 0 0 0 0 0 0 0 0 0 0 0 0 0 0 0 0 0 0 0 0 0 0
0 0 0 0 0 0 0 0 0 0 0 0 0 0 0 0 0 0 0 0 0 0 0 0 0 0 0 0 0 0 1 1 1 1 1 1 0 0 0 0 0 0 0
0 0 0 0 0 0 0 0 0 0 0 0 0 0 0 0 0 0 0 0 0 0 0 0 0 0 0 0 0 0 0 1 1 1 1 1 1 0 0 0 0 0 0
0 0 0 0 0 0 0 0 0 0 0 0 0 0 0 0 0 0 0 0 0 0 0 0 0 0 0 0 0 0 0 0 1 1 1 1 1 1 0 0 0 0 0
0 0 0 0 0 0 0 0 0 0 0 0 0 0 0 0 0 0 0 0 0 0 0 0 0 0 0 0 0 0 0 0 0 1 1 1 1 0 0 0 0 0 0
0 0 0 0 0 0 0 0 0 0 0 0 0 0 0 0 0 0 0 0 0 0 0 0 0 0 0 0 0 0 0 0 0 0 0 0 0 0 0 0 0 0 0
0 0 0 0 0 0 0 0 0 0 0 0 0 0 0 0 0 0 0 0 0 0 0 0 0 0 0 0 0 0 0 0 0 0 0 0 0 0 0 0 0 0 0
0 0 0 0 0 0 0 0 0 0 0 0 0 0 0 0 0 0 0 0 0 0 0 0 0 0 0 0 0 0 0 0 0 0 0 0 0 0 0 0 0 0 0
0 0 0 0 0 0 0 0 0 0 0 0 0 0 0 0 0 0 0 0 0 0 0 0 0 0 0 0 0 0 0 0 0 0 0 0 0 0 0 0 0 0 0
0 0 0 0 0 0 0 0 0 0 0 0 0 0 0 0 0 0 0 0 0 0 0 0 0 0 0 0 0 0 0 0 0 0 0 0 0 0 0 0 0 0 0
0 0 0 0 0 0 0 0 0 0 0 0 0 0 0 0 0 0 0 0 0 0 0 0 0 0 0 0 0 0 0 0 0 0 0 0 0 0 0 0 0 0 0
0 0 0 0 0 0 0 0 0 0 0 0 0 0 0 0 0 0 0 0 0 0 0 0 0 0 0 0 0 0 0 -0 0 0 0 0 0 0 0 0 0 0 0
Wind_Speed
13 12 11 11 11 10 9 9 8 8 8 8 8 8 8 7 7 6 6 5 6 6 5 6 6 5 5 4 4 5 5 6 7 8 6 5 6 8 8 8 9 9 8
13 13 12 11 11 11 10 10 9 9 9 9 8 8 8 8 8 8 8 7 7 7 7 6 7 6 6 7 5 6 6 6 8 9 8 7 7 8 8 9 9 9 9
14 13 13 13 13 12 11 11 10 10 10 9 9 9 9 8 8 8 8 8 8 8 7 8 8 7 8 6 6 7 6 6 7 8 9 7 7 7 8 9 10 8 10
14 14 14 14 13 13 12 11 11 11 10 10 10 10 9 9 9 9 9 9 9 8 8 8 9 9 9 8 7 8 7 8 8 9 9 8 7 7 7 8 8 7 8
14 14 14 13 12 12 12 11 11 11 11 10 10 10 10 9 9 10 9 10 9 9 9 10 10 9 7 7 8 7 7 8 8 8 8 8 7 6 7 7 8 8 8
13 13 13 12 12 12 12 12 11 11 11 10 11 11 11 10 8 8 9 10 9 10 10 10 10 11 12 14 13 12 11 11 10 9 9 9 9 9 8 8 9 9 9
12 11 11 12 12 12 12 12 12 11 11 11 11 11 12 10 9 11 12 11 11 11 11 10 10 10 10 12 14 17 17 18 16 13 13 12 11 10 10 11 10 10 10
11 11 11 11 11 11 11 11 11 10 10 11 11 12 11 11 12 13 12 13 13 13 13 13 13 13 12 12 12 12 13 14 15 15 14 14 13 11 10 11 12 12 12
9 9 10 10 10 10 11 11 10 10 10 10 10 11 12 11 11 13 13 11 12 14 14 14 14 14 13 11 13 14 14 13 14 16 16 14 13 11 10 11 12 12 12
6 6 6 7 8 9 9 9 8 8 9 9 10 10 11 11 10 13 14 10 12 12 12 13 15 17 14 13 14 15 15 14 13 12 13 15 16 16 16 15 14 13 12
2 3 4 5 6 6 6 7 7 8 8 8 9 9 10 10 9 11 14 10 11 12 11 11 11 14 18 17 16 15 16 14 13 13 12 13 13 12 13 14 14 13 13
3 3 3 4 4 4 5 6 6 7 8 8 8 9 8 8 9 10 13 15 13 13 12 12 11 7 12 14 14 16 16 13 13 13 13 12 12 12 11 12 13 14 13
2 3 2 2 2 2 4 5 5 6 7 7 7 8 8 7 7 11 12 14 16 12 12 13 13 11 10 12 17 17 14 12 13 14 14 13 12 12 11 9 11 12 15
3 2 2 2 1 1 2 3 4 4 5 6 6 7 7 6 6 6 5 7 10 12 12 12 14 16 16 16 14 13 13 14 14 14 13 13 12 11 11 11 11 10 11
4 3 2 2 2 0 1 2 3 3 3 5 6 6 7 7 5 5 6 8 8 8 9 10 12 12 12 13 13 13 13 13 14 14 14 13 12 11 11 11 10 10 11
4 3 3 2 2 1 1 1 2 3 3 5 7 8 7 8 9 10 10 11 11 10 9 13 14 14 14 14 13 12 12 13 13 12 12 13 13 12 12 10 10 11 12
5 4 4 3 3 3 3 4 4 4 8 10 11 12 12 12 12 12 13 12 13 10 10 13 14 14 13 13 13 12 12 12 10 11 12 13 13 12 12 11 10 11 11
3 3 3 3 3 4 4 5 5 6 6 6 7 11 12 13 13 14 13 10 11 10 11 12 12 12 12 13 13 12 12 11 11 11 12 13 12 12 11 12 11 12 11
4 3 3 4 5 5 5 6 6 7 8 9 9 7 7 9 12 14 11 10 11 11 11 12 12 12 12 12 12 12 12 11 12 11 10 11 11 10 11 12 11 12 12
3 3 5 6 7 6 6 7 7 8 9 9 9 10 8 9 10 9 9 10 10 11 11 12 11 12 12 12 12 12 12 12 11 11 11 10 10 10 12 13 11 11 10
7 5 5 7 7 7 7 8 8 9 9 10 10 9 7 10 11 12 11 10 11 11 11 11 12 12 12 11 11 12 14 11 11 10 10 10 11 10 10 10 10 11 11
8 8 8 8 7 8 8 9 9 10 11 12 10 9 6 9 10 10 11 11 11 11 11 11 11 11 11 10 10 10 11 11 10 10 10 10 9 9 9 10 11 10 11
8 9 9 8 8 8 8 9 9 10 10 11 11 10 10 10 10 11 11 11 11 11 11 10 11 11 10 9 9 9 10 10 9 9 9 8 8 8 9 10 12 12 11
9 10 10 9 9 9 9 9 10 10 10 10 11 11 10 10 11 11 11 11 11 11 10 10 10 13 15 12 9 8 8 7 8 7 9 8 9 8 8 9 10 11 11
9 9 10 10 9 9 9 10 10 10 10 10 10 10 10 10 11 11 11 10 12 11 12 11 10 11 13 13 11 8 5 4 5 7 8 8 9 9 10 11 10 10 10
9 10 9 9 9 9 9 9 9 10 10 9 9 10 10 10 11 11 11 10 10 10 10 9 11 13 13 10 9 8 5 5 5 6 7 7 8 9 10 9 11 10 11
Wind_Direction
197 197 199 196 195 195 198 195 191 192 189 195 197 199 201 204 207 215 238 222 231 237 238 235 241 266 270 271 264 268 270 275 282 287 289 288 281 282 296 291 281 276 261
197 196 198 198 195 197 198 196 192 192 196 198 200 204 209 210 211 217 228 228 231 237 240 241 244 239 241 261 268 268 271 275 275 285 291 286 278 276 275 279 279 275 280
196 198 198 198 197 201 201 196 195 195 200 200 203 209 214 216 216 219 226 231 235 239 241 242 244 247 247 253 257 267 270 265 266 275 279 282 278 274 278 272 272 270 274
197 198 198 200 199 200 199 197 197 198 200 203 207 213 217 219 220 222 223 229 236 240 241 242 244 244 244 250 251 254 263 273 269 267 273 276 273 271 269 273 273 262 265
198 199 199 198 197 199 198 199 199 201 205 206 211 215 219 221 222 222 227 229 233 240 240 240 242 242 251 253 263 265 263 263 270 270 272 275 277 282 278 281 283 284 272
200 202 197 193 193 196 198 198 200 205 211 211 216 220 222 226 200 206 235 247 242 243 246 245 244 227 227 226 240 252 261 263 268 276 276 277 278 278 279 281 283 282 282
198 200 194 192 193 196 198 199 203 207 211 215 220 224 229 229 197 201 217 243 250 249 249 249 252 248 226 236 227 225 236 241 246 259 270 274 278 276 281 279 274 277 283
196 198 194 195 194 197 201 204 207 211 214 217 222 227 232 231 203 207 212 233 249 251 250 248 250 256 250 244 250 245 243 238 230 232 248 258 263 270 270 271 276 274 268
197 198 195 196 196 196 203 207 209 213 218 221 225 229 234 235 208 207 211 239 243 247 248 248 247 249 243 227 244 253 255 255 244 232 238 249 260 265 264 267 265 266 268
192 192 188 194 199 202 204 207 207 212 222 228 230 232 237 242 218 204 207 241 249 252 249 247 240 240 246 220 237 248 253 256 261 251 231 237 244 245 232 240 253 259 265
168 169 172 185 201 209 209 210 214 217 224 233 241 240 240 245 233 211 209 238 256 259 260 257 252 219 222 224 230 246 252 258 263 262 256 248 242 240 234 227 232 246 259
112 132 159 179 200 199 210 215 219 227 229 231 237 246 244 238 238 229 214 225 249 263 266 268 270 240 219 222 227 241 245 249 256 259 256 254 251 248 242 239 235 238 247
89 117 132 145 174 206 216 221 224 224 243 247 246 250 251 248 235 224 226 229 235 247 262 269 280 280 262 245 236 235 234 239 245 248 250 251 251 251 252 246 242 241 247
58 64 91 109 144 187 239 241 242 244 245 253 259 263 267 263 262 260 251 245 238 242 254 261 253 250 248 257 259 235 231 238 243 246 248 251 251 247 241 243 245 242 243
58 54 59 74 75 39 271 306 292 297 313 292 290 289 286 281 300 332 302 289 291 298 298 276 269 262 255 249 247 247 244 238 235 242 249 250 248 246 245 242 243 247 251
50 38 30 32 30 347 327 288 231 259 256 249 254 267 281 279 292 295 288 281 278 280 278 268 266 263 261 261 261 257 249 246 244 243 243 246 247 246 247 243 240 241 247
33 24 14 10 3 344 331 317 304 258 233 238 241 241 247 266 275 277 276 276 270 254 252 262 265 266 266 265 265 264 264 258 251 246 243 244 244 245 245 244 242 242 245
15 29 345 340 333 324 317 307 300 302 300 289 252 233 236 247 257 262 263 269 267 247 256 264 268 269 268 268 268 268 268 268 259 250 247 246 245 244 244 243 241 242 245
333 337 339 325 308 307 305 302 301 302 301 301 301 283 239 248 249 250 246 261 276 277 274 274 274 273 273 272 271 269 266 264 262 258 252 251 248 246 246 246 246 243 245
292 282 285 299 299 300 301 303 305 306 303 302 301 303 309 305 296 290 278 282 285 285 284 282 279 277 276 274 274 271 266 261 259 256 253 249 247 246 247 249 249 248 243
307 297 253 272 289 301 305 305 304 302 300 300 300 308 320 302 296 297 296 293 291 291 292 289 284 279 274 272 270 268 265 263 259 257 254 249 246 245 247 250 251 250 250
305 303 302 301 302 301 304 301 299 298 298 298 299 298 285 285 294 298 298 298 298 296 294 291 289 286 283 278 274 272 270 267 263 259 255 251 248 247 247 247 247 247 249
296 300 299 298 295 294 286 289 297 300 302 304 304 302 301 299 298 299 301 305 305 301 297 294 293 293 291 285 282 278 274 272 270 265 260 255 251 250 250 251 252 253 252
303 302 301 301 301 301 300 302 303 304 305 305 304 303 302 301 299 300 302 300 300 299 298 298 298 300 302 298 288 282 281 287 285 275 267 261 257 255 254 255 257 257 259
303 306 307 307 306 305 306 306 305 306 306 305 305 305 305 304 302 302 302 301 302 301 301 301 298 301 303 304 305 305 318 312 295 291 274 263 260 259 259 259 259 262 262
311 312 311 310 310 312 312 310 310 310 308 309 308 306 305 305 306 306 306 307 307 306 306 305 306 306 306 306 313 320 313 295 285 282 279 271 265 262 262 262 265 266 269